Simultaneous Nadir Overpasses (SNOs) Predictions

Prediction of SNOs between GOES-15 and TERRA Satellite Orbit:

Table of predicted SNOs for the next 14.0 days since TLE Epoch: 12/3/2011
Index Date Time (GOES-15) GOES-15 Lat,Lon TERRA Lat,Lon Distance(km) Time Diff (sec)
1 12/03/2011 18:47:36 -0.12,-127.41 -0.66,-124.95 280.05 80
2 12/04/2011 07:11:41 0.11,-127.58 -0.44,-130.14 291.40 80
3 12/06/2011 06:56:58 0.11,-129.17 0.50,-127.26 216.85 80
4 12/06/2011 19:20:56 -0.10,-129.83 0.44,-132.46 297.75 80
5 12/08/2011 19:06:14 -0.11,-131.42 -0.53,-129.58 209.57 80
6 12/09/2011 07:30:17 0.09,-131.58 -0.61,-134.77 362.75 80
7 12/11/2011 07:15:34 0.10,-133.16 0.38,-131.90 144.19 80
8 12/11/2011 19:39:32 -0.08,-133.82 0.60,-137.08 370.30 80
9 12/13/2011 19:24:48
